Showing default

IRIDIUM 154, 43574

Orbit data source: Space-Track

IRIDIUM 154, 43574 is a payload satellite owned by Iridium (US) in LEO that was launched on Wed, 25 Jul 2018 UTC via an FALCON 9 launch vehicle from the Air Force Western Test Range (AFWTR). Payload-class satellites include a variety of spacecraft equipped with specific instruments for various scientific and technological missions. These include communications satellites like Starlink; space stations such as the ISS; scientific satellites like the Hubble; Earth observation satellites from companies like Planet Labs, Umbra, and HawkEye 360; GPS; miniature CubeSats for education and research; and military/defense satellites.

Loading next visibility...
Identifier
43574, 2018-061F
Orbit
LEO
Country
Flag of USUS
Related business
Manufacturer
NGIS SSG Gilbert
Mission
Operational Commercial Communications
Bus & Motor
ELITEBUS, Unknown motor
Mass
860 kg wet, 700 kg dry
Launch date (UTC)
2018-07-25 (8 years ago)
Launch vehicle
FALCON 9
Launch site
Air Force Western Test Range (AFWTR)
Object type
Payload
Rocket body
Debris
Shape & HBR
Trap Box + 2 Pan, 4.8 m
Radar Cross Section
10.154 m², Large (>1 m²)

Expand to show TLE details & history
Last TLE update: 11 hours ago

TLE from 11 hours ago
0 IRIDIUM 154
1 43574U 18061F   26123.92859354  .00000015  00000-0 -17303-5 0  9994
2 43574  86.3953  75.3082 0002243  81.7892 278.3558 14.34217558407065
Epoch: 2026-05-03T22:17Z
TLE epoch observation values (Epoch: 2026-05-03T22:17:10.481Z)
Latitude
-0.00006°
Longitude
-120.81058°
Altitude
780.486 km
Speed
7.464 km/s
True Right ascension
05h 01m 13s
True Declination
0° 00' 00"
Sunlit
Object was in daylight at epoch
Visualization orbit readout
Latitude
Unknown
Longitude
Unknown
Altitude
Unknown
Speed
Unknown
Apparent Right ascension
Unknown
Apparent Declination
Unknown
Sunlit
N/A
Visualization observer readout
Local Sidereal Time
16:51:31
Azimuth
Unknown
Elevation
Unknown
Doppler factor
Unknown
Orbital elements
Apogee altitude
776.237 km
Perigee altitude
773.028 km
Semi-major axis
7,152.769 km
Eccentricity
0.00022
Inclination
86.3953°
RAAN
75.3082°
Arg. of periapsis
81.7892°
True anomaly
278.33037°
Mean anomaly
278.3558°
Eccentric anomaly
278.34308°
Mean motion
3.58783 °/min
Orbital period
100.34 mins
BSTAR
-0.0000017303
Loading maneuver chart data...
Computing Atmospheric mass density...
Loading historical data...
Loading historical data...
Loading historical data...
Loading historical data...
Loading historical data...
Loading historical data...
Loading historical data...

Documentation

Showing up to 5 results
|